Location: Cary
(35.7910°N, 78.7810°W)
Time: 12:52:04
(UTC-05:00)

N. Korean satellite - Pass Details

Date: 29 November 2021
Orbit: 447 x 491 km, 97.3° (Epoch: 25 January)

Event Time Altitude Azimuth Distance (km) Brightness Sun altitude
Rises 17:30:41 0° 198° (SSW) 2,549 10.9 -6.2°
Reaches altitude 10° 17:33:10 10° 216° (SW) 1,667 10.3 -6.6°
Maximum altitude 17:35:51 20° 264° (W) 1,176 9.7 -7.1°
Drops below altitude 10° 17:38:31 10° 313° (NW) 1,659 9.6 -7.6°
Sets 17:41:00 0° 331° (NNW) 2,533 10.3 -8.1°
